 ���� , ����� , n.������� , ���� , t.������� , t.�� ������� , ���.�� ������� 
2020.03.03 , 07:00 , 901 , 1.11443 , 8 , 1 , 2 , 
2020.03.02 , 23:00 , 900 , 1.11350 , 8 , 4 , 1 , 
2020.03.02 , 15:00 , 899 , 1.11122 , 8 , 23 , 0 , 
2020.03.02 , 07:00 , 898 , 1.10527 , 8 , 15 , 0 , 
2020.02.28 , 23:00 , 897 , 1.10380 , 8 , 7 , 1 , 
2020.02.28 , 15:00 , 896 , 1.09871 , 8 , 4 , 1 , 
2020.02.28 , 07:00 , 895 , 1.09940 , 8 , 39 , 0 , 
2020.02.27 , 23:00 , 894 , 1.09928 , 8 , 31 , 0 , 
2020.02.27 , 15:00 , 893 , 1.09644 , 8 , 23 , 0 , 
2020.02.27 , 07:00 , 892 , 1.09123 , 8 , 15 , 0 , 
2020.02.26 , 23:00 , 891 , 1.08846 , 8 , 7 , 1 , 
2020.02.26 , 15:00 , 890 , 1.08692 , 8 , 1 , 1 , 
2020.02.26 , 07:00 , 889 , 1.08674 , 8 , 3 , 1 , 
2020.02.25 , 23:00 , 888 , 1.08822 , 8 , 2 , 1 , 
2020.02.25 , 15:00 , 887 , 1.08362 , 8 , 2 , 1 , 
2020.02.25 , 07:00 , 886 , 1.08607 , 8 , 11 , 0 , 
2020.02.24 , 23:00 , 885 , 1.08522 , 8 , 3 , 1 , 
2020.02.24 , 15:00 , 884 , 1.08182 , 8 , 6 , 1 , 
2020.02.24 , 07:00 , 883 , 1.08210 , 8 , 13 , 0 , 
2020.02.21 , 23:00 , 882 , 1.08490 , 8 , 5 , 1 , 
2020.02.21 , 15:00 , 881 , 1.07966 , 8 , 21 , 0 , 
2020.02.21 , 07:00 , 880 , 1.07946 , 8 , 13 , 0 , 
2020.02.20 , 23:00 , 879 , 1.07895 , 8 , 5 , 2 , 
2020.02.20 , 15:00 , 878 , 1.07881 , 8 , 6 , 1 , 
2020.02.20 , 07:00 , 877 , 1.07985 , 8 , 5 , 1 , 
2020.02.19 , 23:00 , 876 , 1.08101 , 8 , 6 , 1 , 
2020.02.19 , 15:00 , 875 , 1.08007 , 8 , 4 , 1 , 
2020.02.19 , 07:00 , 874 , 1.07973 , 8 , 15 , 0 , 
2020.02.18 , 23:00 , 873 , 1.07957 , 8 , 7 , 1 , 
2020.02.18 , 15:00 , 872 , 1.08140 , 8 , 6 , 1 , 
2020.02.18 , 07:00 , 871 , 1.08300 , 8 , 4 , 1 , 
2020.02.17 , 23:00 , 870 , 1.08331 , 8 , 12 , 0 , 
2020.02.17 , 15:00 , 869 , 1.08363 , 8 , 4 , 1 , 
2020.02.17 , 07:00 , 868 , 1.08375 , 8 , 8 , 0 , 
2020.02.14 , 23:00 , 867 , 1.08369 , 8 , 0 , 2 , 
2020.02.14 , 15:00 , 866 , 1.08398 , 8 , 13 , 0 , 
2020.02.14 , 07:00 , 865 , 1.08330 , 8 , 5 , 1 , 
2020.02.13 , 23:00 , 864 , 1.08413 , 8 , 12 , 0 , 
2020.02.13 , 15:00 , 863 , 1.08638 , 8 , 4 , 1 , 
2020.02.13 , 07:00 , 862 , 1.08690 , 8 , 1 , 1 , 
2020.02.12 , 23:00 , 861 , 1.08752 , 8 , 13 , 0 , 
2020.02.12 , 15:00 , 860 , 1.09122 , 8 , 5 , 2 , 
2020.02.12 , 07:00 , 859 , 1.09120 , 8 , 14 , 0 , 
2020.02.11 , 23:00 , 858 , 1.09194 , 8 , 6 , 1 , 
2020.02.11 , 15:00 , 857 , 1.09090 , 8 , 0 , 1 , 
2020.02.11 , 07:00 , 856 , 1.09094 , 8 , 2 , 1 , 
2020.02.10 , 23:00 , 855 , 1.09122 , 8 , 1 , 1 , 
2020.02.10 , 15:00 , 854 , 1.09491 , 8 , 8 , 0 , 
2020.02.10 , 07:00 , 853 , 1.09568 , 8 , 0 , 2 , 
2020.02.07 , 23:00 , 852 , 1.09472 , 8 , 6 , 1 , 
2020.02.07 , 15:00 , 851 , 1.09642 , 8 , 3 , 1 , 
2020.02.07 , 07:00 , 850 , 1.09811 , 8 , 2 , 1 , 
2020.02.06 , 23:00 , 849 , 1.09786 , 8 , 6 , 1 , 
2020.02.06 , 15:00 , 848 , 1.10026 , 8 , 29 , 0 , 
2020.02.06 , 07:00 , 847 , 1.09956 , 8 , 21 , 0 , 
2020.02.05 , 23:00 , 846 , 1.09974 , 8 , 13 , 0 , 
2020.02.05 , 15:00 , 845 , 1.10222 , 8 , 5 , 1 , 
2020.02.05 , 07:00 , 844 , 1.10345 , 8 , 2 , 2 , 
2020.02.04 , 23:00 , 843 , 1.10442 , 8 , 5 , 1 , 
2020.02.04 , 15:00 , 842 , 1.10440 , 8 , 40 , 0 , 
2020.02.04 , 07:00 , 841 , 1.10598 , 8 , 32 , 0 , 
2020.02.03 , 23:00 , 840 , 1.10582 , 8 , 24 , 0 , 
2020.02.03 , 15:00 , 839 , 1.10658 , 8 , 16 , 0 , 
2020.02.03 , 07:00 , 838 , 1.10817 , 8 , 8 , 0 , 
2020.01.31 , 23:00 , 837 , 1.10899 , 8 , 0 , 1 , 
2020.01.31 , 15:00 , 836 , 1.10472 , 8 , 6 , 1 , 
2020.01.31 , 07:00 , 835 , 1.10242 , 8 , 10 , 0 , 
2020.01.30 , 23:00 , 834 , 1.10321 , 8 , 2 , 1 , 
2020.01.30 , 15:00 , 833 , 1.10228 , 8 , 6 , 1 , 
2020.01.30 , 07:00 , 832 , 1.10170 , 8 , 10 , 0 , 
2020.01.29 , 23:00 , 831 , 1.10067 , 8 , 2 , 1 , 
2020.01.29 , 15:00 , 830 , 1.09978 , 8 , 0 , 1 , 
2020.01.29 , 07:00 , 829 , 1.10130 , 8 , 5 , 1 , 
2020.01.28 , 23:00 , 828 , 1.10216 , 8 , 6 , 1 , 
2020.01.28 , 15:00 , 827 , 1.10064 , 8 , 12 , 0 , 
2020.01.28 , 07:00 , 826 , 1.10225 , 8 , 4 , 1 , 
2020.01.27 , 23:00 , 825 , 1.10169 , 8 , 5 , 1 , 
2020.01.27 , 15:00 , 824 , 1.10231 , 8 , 6 , 1 , 
2020.01.27 , 07:00 , 823 , 1.10276 , 8 , 13 , 0 , 
2020.01.24 , 23:00 , 822 , 1.10275 , 8 , 5 , 1 , 
2020.01.24 , 15:00 , 821 , 1.10277 , 8 , 5 , 1 , 
2020.01.24 , 07:00 , 820 , 1.10486 , 8 , 13 , 0 , 
2020.01.23 , 23:00 , 819 , 1.10553 , 8 , 5 , 1 , 
2020.01.23 , 15:00 , 818 , 1.10844 , 8 , 0 , 1 , 
2020.01.23 , 07:00 , 817 , 1.10852 , 8 , 14 , 0 , 
2020.01.22 , 23:00 , 816 , 1.10924 , 8 , 6 , 2 , 
2020.01.22 , 15:00 , 815 , 1.10835 , 8 , 5 , 1 , 
2020.01.22 , 07:00 , 814 , 1.10823 , 8 , 16 , 0 , 
2020.01.21 , 23:00 , 813 , 1.10872 , 8 , 8 , 0 , 
2020.01.21 , 15:00 , 812 , 1.11079 , 8 , 0 , 2 , 
2020.01.21 , 07:00 , 811 , 1.10992 , 8 , 1 , 1 , 
2020.01.20 , 23:00 , 810 , 1.10975 , 8 , 6 , 1 , 
2020.01.20 , 15:00 , 809 , 1.10838 , 8 , 6 , 1 , 
2020.01.20 , 07:00 , 808 , 1.10963 , 8 , 14 , 0 , 
2020.01.17 , 23:00 , 807 , 1.10923 , 8 , 6 , 1 , 
2020.01.17 , 15:00 , 806 , 1.11097 , 8 , 11 , 0 , 
2020.01.17 , 07:00 , 805 , 1.11318 , 8 , 3 , 1 , 
2020.01.16 , 23:00 , 804 , 1.11377 , 8 , 5 , 1 , 
2020.01.16 , 15:00 , 803 , 1.11648 , 8 , 1 , 2 , 
2020.01.16 , 07:00 , 802 , 1.11510 , 8 , 15 , 0 , 
2020.01.15 , 23:00 , 801 , 1.11523 , 8 , 7 , 1 , 
2020.01.15 , 15:00 , 800 , 1.11409 , 8 , 5 , 1 , 
2020.01.15 , 07:00 , 799 , 1.11330 , 8 , 11 , 0 , 
2020.01.14 , 23:00 , 798 , 1.11282 , 8 , 3 , 2 , 
2020.01.14 , 15:00 , 797 , 1.11205 , 8 , 21 , 0 , 
2020.01.14 , 07:00 , 796 , 1.11365 , 8 , 13 , 0 , 
2020.01.13 , 23:00 , 795 , 1.11375 , 8 , 5 , 1 , 
2020.01.13 , 15:00 , 794 , 1.11245 , 8 , 3 , 2 , 
2020.01.13 , 07:00 , 793 , 1.11271 , 8 , 18 , 0 , 
2020.01.10 , 23:00 , 792 , 1.11214 , 8 , 10 , 0 , 
2020.01.10 , 15:00 , 791 , 1.10982 , 8 , 2 , 1 , 
2020.01.10 , 07:00 , 790 , 1.11075 , 8 , 1 , 1 , 
2020.01.09 , 23:00 , 789 , 1.11062 , 8 , 6 , 1 , 
2020.01.09 , 15:00 , 788 , 1.11135 , 8 , 6 , 1 , 
2020.01.09 , 07:00 , 787 , 1.11153 , 8 , 8 , 0 , 
2020.01.08 , 23:00 , 786 , 1.11118 , 8 , 0 , 1 , 
2020.01.08 , 15:00 , 785 , 1.11166 , 8 , 13 , 0 , 
2020.01.08 , 07:00 , 784 , 1.11476 , 8 , 5 , 1 , 
2020.01.07 , 23:00 , 783 , 1.11437 , 8 , 5 , 1 , 
2020.01.07 , 15:00 , 782 , 1.11747 , 8 , 26 , 0 , 
2020.01.07 , 07:00 , 781 , 1.11908 , 8 , 18 , 0 , 
2020.01.06 , 23:00 , 780 , 1.11933 , 8 , 10 , 0 , 
2020.01.06 , 15:00 , 779 , 1.11981 , 8 , 2 , 2 , 
2020.01.06 , 07:00 , 778 , 1.11643 , 8 , 13 , 0 , 
2020.01.03 , 23:00 , 777 , 1.11613 , 8 , 5 , 1 , 
2020.01.03 , 15:00 , 776 , 1.11390 , 8 , 2 , 1 , 
2020.01.03 , 07:00 , 775 , 1.11698 , 8 , 4 , 1 , 
2020.01.02 , 23:00 , 774 , 1.11690 , 8 , 4 , 1 , 
2020.01.02 , 15:00 , 773 , 1.11929 , 8 , 10 , 0 , 
2019.12.31 , 18:00 , 772 , 1.12237 , 8 , 2 , 1 , 
2019.12.31 , 10:00 , 771 , 1.12053 , 8 , 19 , 0 , 
2019.12.31 , 02:00 , 770 , 1.12012 , 8 , 11 , 0 , 
2019.12.30 , 18:00 , 769 , 1.12009 , 8 , 3 , 1 , 
2019.12.30 , 10:00 , 768 , 1.11958 , 8 , 5 , 1 , 
2019.12.30 , 02:00 , 767 , 1.11810 , 8 , 47 , 0 , 
2019.12.27 , 18:00 , 766 , 1.11628 , 8 , 39 , 0 , 
2019.12.27 , 10:00 , 765 , 1.11292 , 8 , 31 , 0 , 
2019.12.27 , 02:00 , 764 , 1.11011 , 8 , 23 , 0 , 
2019.12.26 , 18:00 , 763 , 1.10990 , 8 , 15 , 0 , 
2019.12.26 , 10:00 , 762 , 1.10902 , 8 , 7 , 1 , 
2019.12.24 , 12:00 , 761 , 1.10749 , 8 , 19 , 0 , 
2019.12.24 , 04:00 , 760 , 1.10878 , 8 , 11 , 0 , 
2019.12.23 , 20:00 , 759 , 1.10908 , 8 , 3 , 2 , 
2019.12.23 , 12:00 , 758 , 1.10834 , 8 , 2 , 1 , 
2019.12.23 , 04:00 , 757 , 1.10783 , 8 , 8 , 0 , 
2019.12.20 , 20:00 , 756 , 1.10684 , 8 , 0 , 1 , 
2019.12.20 , 12:00 , 755 , 1.11207 , 8 , 2 , 1 , 
2019.12.20 , 04:00 , 754 , 1.11183 , 8 , 11 , 0 , 
2019.12.19 , 20:00 , 753 , 1.11250 , 8 , 3 , 1 , 
2019.12.19 , 12:00 , 752 , 1.11363 , 8 , 0 , 1 , 
2019.12.19 , 04:00 , 751 , 1.11234 , 8 , 13 , 0 , 
2019.12.18 , 20:00 , 750 , 1.11180 , 8 , 5 , 1 , 
2019.12.18 , 12:00 , 749 , 1.11326 , 8 , 1 , 1 , 
2019.12.18 , 04:00 , 748 , 1.11408 , 8 , 5 , 1 , 
2019.12.17 , 20:00 , 747 , 1.11516 , 8 , 6 , 1 , 
2019.12.17 , 12:00 , 746 , 1.11498 , 8 , 2 , 2 , 
2019.12.17 , 04:00 , 745 , 1.11391 , 8 , 2 , 1 , 
2019.12.16 , 20:00 , 744 , 1.11427 , 8 , 3 , 1 , 
2019.12.16 , 12:00 , 743 , 1.11347 , 8 , 1 , 2 , 
2019.12.16 , 04:00 , 742 , 1.11280 , 8 , 6 , 1 , 
2019.12.13 , 20:00 , 741 , 1.11155 , 8 , 7 , 1 , 
2019.12.13 , 12:00 , 740 , 1.11802 , 8 , 3 , 1 , 
2019.12.13 , 04:00 , 739 , 1.11767 , 8 , 4 , 1 , 
2019.12.12 , 20:00 , 738 , 1.11101 , 8 , 0 , 2 , 
2019.12.12 , 12:00 , 737 , 1.11275 , 8 , 1 , 1 , 
2019.12.12 , 04:00 , 736 , 1.11398 , 8 , 6 , 1 , 
2019.12.11 , 20:00 , 735 , 1.10924 , 8 , 6 , 1 , 
2019.12.11 , 12:00 , 734 , 1.10835 , 8 , 15 , 0 , 
2019.12.11 , 04:00 , 733 , 1.10951 , 8 , 7 , 1 , 
2019.12.10 , 20:00 , 732 , 1.10864 , 8 , 25 , 0 , 
2019.12.10 , 12:00 , 731 , 1.10769 , 8 , 17 , 0 , 
2019.12.10 , 04:00 , 730 , 1.10676 , 8 , 9 , 0 , 
2019.12.09 , 20:00 , 729 , 1.10566 , 8 , 1 , 2 , 
2019.12.09 , 12:00 , 728 , 1.10652 , 8 , 19 , 0 , 
2019.12.09 , 04:00 , 727 , 1.10571 , 8 , 11 , 0 , 
2019.12.06 , 20:00 , 726 , 1.10548 , 8 , 3 , 1 , 
2019.12.06 , 12:00 , 725 , 1.10964 , 8 , 2 , 1 , 
2019.12.06 , 04:00 , 724 , 1.11065 , 8 , 18 , 0 , 
2019.12.05 , 20:00 , 723 , 1.11046 , 8 , 10 , 0 , 
2019.12.05 , 12:00 , 722 , 1.10921 , 8 , 2 , 2 , 
2019.12.05 , 04:00 , 721 , 1.10840 , 8 , 7 , 1 , 
2019.12.04 , 20:00 , 720 , 1.10777 , 8 , 3 , 1 , 
2019.12.04 , 12:00 , 719 , 1.10724 , 8 , 1 , 1 , 
2019.12.04 , 04:00 , 718 , 1.10792 , 8 , 9 , 0 , 
2019.12.03 , 20:00 , 717 , 1.10882 , 8 , 1 , 1 , 
2019.12.03 , 12:00 , 716 , 1.10836 , 8 , 0 , 2 , 
2019.12.03 , 04:00 , 715 , 1.10722 , 8 , 0 , 1 , 
2019.12.02 , 20:00 , 714 , 1.10748 , 8 , 2 , 2 , 
2019.12.02 , 12:00 , 713 , 1.10141 , 8 , 3 , 1 , 
2019.12.02 , 04:00 , 712 , 1.10182 , 8 , 2 , 1 , 
2019.11.29 , 20:00 , 711 , 1.10160 , 8 , 3 , 2 , 
2019.11.29 , 12:00 , 710 , 1.10044 , 8 , 3 , 1 , 
2019.11.29 , 04:00 , 709 , 1.10114 , 8 , 14 , 0 , 
2019.11.28 , 20:00 , 708 , 1.10078 , 8 , 6 , 1 , 
2019.11.28 , 12:00 , 707 , 1.10139 , 8 , 1 , 1 , 
2019.11.28 , 04:00 , 706 , 1.10070 , 8 , 12 , 0 , 
2019.11.27 , 20:00 , 705 , 1.10000 , 8 , 4 , 1 , 
2019.11.27 , 12:00 , 704 , 1.10091 , 8 , 13 , 0 , 
2019.11.27 , 04:00 , 703 , 1.10159 , 8 , 5 , 1 , 
2019.11.26 , 20:00 , 702 , 1.10200 , 8 , 3 , 2 , 
2019.11.26 , 12:00 , 701 , 1.10142 , 8 , 20 , 0 , 
2019.11.26 , 04:00 , 700 , 1.10120 , 8 , 12 , 0 , 
2019.11.25 , 20:00 , 699 , 1.10055 , 8 , 4 , 1 , 
2019.11.25 , 12:00 , 698 , 1.10133 , 8 , 2 , 1 , 
2019.11.25 , 04:00 , 697 , 1.10234 , 8 , 7 , 1 , 
2019.11.22 , 20:00 , 696 , 1.10236 , 8 , 10 , 0 , 
2019.11.22 , 12:00 , 695 , 1.10607 , 8 , 2 , 1 , 
2019.11.22 , 04:00 , 694 , 1.10640 , 8 , 7 , 1 , 
2019.11.21 , 20:00 , 693 , 1.10624 , 8 , 5 , 1 , 
2019.11.21 , 12:00 , 692 , 1.10862 , 8 , 3 , 1 , 
2019.11.21 , 04:00 , 691 , 1.10771 , 8 , 11 , 0 , 
2019.11.20 , 20:00 , 690 , 1.10665 , 8 , 3 , 2 , 
2019.11.20 , 12:00 , 689 , 1.10635 , 8 , 19 , 0 , 
2019.11.20 , 04:00 , 688 , 1.10723 , 8 , 11 , 0 , 
2019.11.19 , 20:00 , 687 , 1.10802 , 8 , 3 , 1 , 
2019.11.19 , 12:00 , 686 , 1.10682 , 8 , 1 , 2 , 
2019.11.19 , 04:00 , 685 , 1.10695 , 8 , 1 , 1 , 
2019.11.18 , 20:00 , 684 , 1.10815 , 8 , 2 , 2 , 
2019.11.18 , 12:00 , 683 , 1.10618 , 8 , 3 , 1 , 
2019.11.18 , 04:00 , 682 , 1.10575 , 8 , 17 , 0 , 
2019.11.15 , 20:00 , 681 , 1.10537 , 8 , 9 , 0 , 
2019.11.15 , 12:00 , 680 , 1.10191 , 8 , 1 , 1 , 
2019.11.15 , 04:00 , 679 , 1.10250 , 8 , 0 , 1 , 
2019.11.14 , 20:00 , 678 , 1.10177 , 8 , 7 , 1 , 
2019.11.14 , 12:00 , 677 , 1.10009 , 8 , 2 , 2 , 
2019.11.14 , 04:00 , 676 , 1.10039 , 8 , 2 , 1 , 
2019.11.13 , 20:00 , 675 , 1.09989 , 8 , 1 , 1 , 
2019.11.13 , 12:00 , 674 , 1.10150 , 8 , 0 , 2 , 
2019.11.13 , 04:00 , 673 , 1.10103 , 8 , 20 , 0 , 
2019.11.12 , 20:00 , 672 , 1.10106 , 8 , 12 , 0 , 
2019.11.12 , 12:00 , 671 , 1.10323 , 8 , 4 , 1 , 
2019.11.12 , 04:00 , 670 , 1.10281 , 8 , 0 , 1 , 
2019.11.11 , 20:00 , 669 , 1.10387 , 8 , 5 , 1 , 
2019.11.11 , 12:00 , 668 , 1.10295 , 8 , 10 , 0 , 
2019.11.11 , 04:00 , 667 , 1.10182 , 8 , 2 , 1 , 
2019.11.08 , 20:00 , 666 , 1.10199 , 8 , 10 , 0 , 
2019.11.08 , 12:00 , 665 , 1.10383 , 8 , 2 , 1 , 
2019.11.08 , 04:00 , 664 , 1.10515 , 8 , 9 , 0 , 
2019.11.07 , 20:00 , 663 , 1.10406 , 8 , 1 , 1 , 
2019.11.07 , 12:00 , 662 , 1.10777 , 8 , 0 , 2 , 
2019.11.07 , 04:00 , 661 , 1.10644 , 8 , 17 , 0 , 
2019.11.06 , 20:00 , 660 , 1.10659 , 8 , 9 , 0 , 
2019.11.06 , 12:00 , 659 , 1.10913 , 8 , 1 , 1 , 
2019.11.06 , 04:00 , 658 , 1.10751 , 8 , 7 , 1 , 
2019.11.05 , 20:00 , 657 , 1.10676 , 8 , 10 , 0 , 
2019.11.05 , 12:00 , 656 , 1.11293 , 8 , 2 , 2 , 
2019.11.05 , 04:00 , 655 , 1.11255 , 8 , 19 , 0 , 
2019.11.04 , 20:00 , 654 , 1.11411 , 8 , 11 , 0 , 
2019.11.04 , 12:00 , 653 , 1.11649 , 8 , 3 , 1 , 
2019.11.04 , 04:00 , 652 , 1.11671 , 8 , 13 , 0 , 
2019.11.01 , 19:00 , 651 , 1.11681 , 8 , 5 , 1 , 
2019.11.01 , 11:00 , 650 , 1.11605 , 8 , 1 , 1 , 
2019.11.01 , 03:00 , 649 , 1.11547 , 8 , 11 , 0 , 
2019.10.31 , 19:00 , 648 , 1.11502 , 8 , 3 , 1 , 
2019.10.31 , 11:00 , 647 , 1.11748 , 8 , 1 , 1 , 
2019.10.31 , 03:00 , 646 , 1.11621 , 8 , 7 , 1 , 
2019.10.30 , 19:00 , 645 , 1.11207 , 8 , 7 , 1 , 
2019.10.30 , 11:00 , 644 , 1.11190 , 8 , 6 , 1 , 
2019.10.30 , 03:00 , 643 , 1.11089 , 8 , 9 , 0 , 
2019.10.29 , 19:00 , 642 , 1.11092 , 8 , 1 , 2 , 
2019.10.29 , 11:00 , 641 , 1.10794 , 8 , 14 , 0 , 
2019.10.29 , 03:00 , 640 , 1.10978 , 8 , 6 , 1 , 
2019.10.28 , 19:00 , 639 , 1.10984 , 8 , 4 , 2 , 
2019.10.28 , 11:00 , 638 , 1.10915 , 8 , 7 , 1 , 
2019.10.28 , 03:00 , 637 , 1.10821 , 8 , 1 , 2 , 
2019.10.25 , 19:00 , 636 , 1.10809 , 8 , 7 , 1 , 
2019.10.25 , 11:00 , 635 , 1.11129 , 8 , 17 , 0 , 
2019.10.25 , 03:00 , 634 , 1.11034 , 8 , 9 , 0 , 
2019.10.24 , 19:00 , 633 , 1.10975 , 8 , 1 , 1 , 
2019.10.24 , 11:00 , 632 , 1.11468 , 8 , 1 , 1 , 
2019.10.24 , 03:00 , 631 , 1.11319 , 8 , 14 , 0 , 
2019.10.23 , 19:00 , 630 , 1.11174 , 8 , 6 , 1 , 
2019.10.23 , 11:00 , 629 , 1.11248 , 8 , 14 , 0 , 
2019.10.23 , 03:00 , 628 , 1.11289 , 8 , 6 , 1 , 
2019.10.22 , 19:00 , 627 , 1.11376 , 8 , 4 , 1 , 
2019.10.22 , 11:00 , 626 , 1.11443 , 8 , 7 , 1 , 
2019.10.22 , 03:00 , 625 , 1.11515 , 8 , 9 , 0 , 
2019.10.21 , 19:00 , 624 , 1.11449 , 8 , 1 , 1 , 
2019.10.21 , 11:00 , 623 , 1.11643 , 8 , 0 , 2 , 
2019.10.21 , 03:00 , 622 , 1.11558 , 8 , 4 , 1 , 
2019.10.18 , 19:00 , 621 , 1.11544 , 8 , 10 , 0 , 
2019.10.18 , 11:00 , 620 , 1.11241 , 8 , 2 , 1 , 
2019.10.18 , 03:00 , 619 , 1.11246 , 8 , 15 , 0 , 
2019.10.17 , 19:00 , 618 , 1.11287 , 8 , 7 , 1 , 
2019.10.17 , 11:00 , 617 , 1.10777 , 8 , 1 , 1 , 
2019.10.17 , 03:00 , 616 , 1.10738 , 8 , 8 , 0 , 
2019.10.16 , 19:00 , 615 , 1.10747 , 8 , 0 , 2 , 
2019.10.16 , 11:00 , 614 , 1.10350 , 8 , 2 , 2 , 
2019.10.16 , 03:00 , 613 , 1.10343 , 8 , 10 , 0 , 
2019.10.15 , 19:00 , 612 , 1.10352 , 8 , 2 , 2 , 
2019.10.15 , 11:00 , 611 , 1.10207 , 8 , 2 , 1 , 
2019.10.15 , 03:00 , 610 , 1.10257 , 8 , 0 , 1 , 
2019.10.14 , 19:00 , 609 , 1.10264 , 8 , 6 , 1 , 
2019.10.14 , 11:00 , 608 , 1.10180 , 8 , 2 , 1 , 
2019.10.14 , 03:00 , 607 , 1.10280 , 8 , 11 , 0 , 
2019.10.11 , 19:00 , 606 , 1.10388 , 8 , 3 , 1 , 
2019.10.11 , 11:00 , 605 , 1.10110 , 8 , 0 , 1 , 
2019.10.11 , 03:00 , 604 , 1.10105 , 8 , 13 , 0 , 
2019.10.10 , 19:00 , 603 , 1.10175 , 8 , 5 , 1 , 
2019.10.10 , 11:00 , 602 , 1.10161 , 8 , 12 , 0 , 
2019.10.10 , 03:00 , 601 , 1.09840 , 8 , 4 , 1 , 
2019.10.09 , 19:00 , 600 , 1.09776 , 8 , 7 , 1 , 
2019.10.09 , 11:00 , 599 , 1.09782 , 8 , 14 , 0 , 
2019.10.09 , 03:00 , 598 , 1.09596 , 8 , 6 , 1 , 
2019.10.08 , 19:00 , 597 , 1.09487 , 8 , 6 , 1 , 
2019.10.08 , 11:00 , 596 , 1.09792 , 8 , 8 , 0 , 
2019.10.08 , 03:00 , 595 , 1.09714 , 8 , 0 , 1 , 
2019.10.07 , 19:00 , 594 , 1.09837 , 8 , 3 , 1 , 
2019.10.07 , 11:00 , 593 , 1.09725 , 8 , 0 , 2 , 
2019.10.07 , 03:00 , 592 , 1.09832 , 8 , 17 , 0 , 
2019.10.04 , 19:00 , 591 , 1.09730 , 8 , 9 , 0 , 
2019.10.04 , 11:00 , 590 , 1.09717 , 8 , 1 , 1 , 
2019.10.04 , 03:00 , 589 , 1.09744 , 8 , 10 , 0 , 
2019.10.03 , 19:00 , 588 , 1.09900 , 8 , 2 , 1 , 
2019.10.03 , 11:00 , 587 , 1.09444 , 8 , 1 , 1 , 
2019.10.03 , 03:00 , 586 , 1.09604 , 8 , 0 , 1 , 
2019.10.02 , 19:00 , 585 , 1.09496 , 8 , 8 , 0 , 
2019.10.02 , 11:00 , 584 , 1.09197 , 8 , 0 , 1 , 
2019.10.02 , 03:00 , 583 , 1.09340 , 8 , 8 , 0 , 
2019.10.01 , 19:00 , 582 , 1.09312 , 8 , 0 , 1 , 
2019.10.01 , 11:00 , 581 , 1.08878 , 8 , 2 , 1 , 
2019.10.01 , 03:00 , 580 , 1.08992 , 8 , 17 , 0 , 
2019.09.30 , 19:00 , 579 , 1.09045 , 8 , 9 , 0 , 
2019.09.30 , 11:00 , 578 , 1.09347 , 8 , 1 , 2 , 
2019.09.30 , 03:00 , 577 , 1.09421 , 8 , 9 , 0 , 
2019.09.27 , 19:00 , 576 , 1.09415 , 8 , 1 , 1 , 
2019.09.27 , 11:00 , 575 , 1.09177 , 8 , 8 , 0 , 
2019.09.27 , 03:00 , 574 , 1.09221 , 8 , 0 , 1 , 
2019.09.26 , 19:00 , 573 , 1.09376 , 8 , 3 , 2 , 
2019.09.26 , 11:00 , 572 , 1.09445 , 8 , 5 , 1 , 
2019.09.26 , 03:00 , 571 , 1.09511 , 8 , 6 , 1 , 
2019.09.25 , 19:00 , 570 , 1.09488 , 8 , 21 , 0 , 
2019.09.25 , 11:00 , 569 , 1.09973 , 8 , 13 , 0 , 
2019.09.25 , 03:00 , 568 , 1.10135 , 8 , 5 , 1 , 
2019.09.24 , 19:00 , 567 , 1.09989 , 8 , 10 , 0 , 
2019.09.24 , 11:00 , 566 , 1.09864 , 8 , 2 , 1 , 
2019.09.24 , 03:00 , 565 , 1.09938 , 8 , 9 , 0 , 
2019.09.23 , 19:00 , 564 , 1.09902 , 8 , 1 , 1 , 
2019.09.23 , 11:00 , 563 , 1.09694 , 8 , 1 , 2 , 
2019.09.23 , 03:00 , 562 , 1.10185 , 8 , 9 , 0 , 
2019.09.20 , 19:00 , 561 , 1.10024 , 8 , 1 , 1 , 
2019.09.20 , 11:00 , 560 , 1.10506 , 8 , 1 , 1 , 
2019.09.20 , 03:00 , 559 , 1.10445 , 8 , 8 , 0 , 
2019.09.19 , 19:00 , 558 , 1.10465 , 8 , 0 , 2 , 
2019.09.19 , 11:00 , 557 , 1.10510 , 8 , 14 , 0 , 
2019.09.19 , 03:00 , 556 , 1.10290 , 8 , 6 , 1 , 
2019.09.18 , 19:00 , 555 , 1.10610 , 8 , 0 , 2 , 
2019.09.18 , 11:00 , 554 , 1.10546 , 8 , 9 , 0 , 
2019.09.18 , 03:00 , 553 , 1.10737 , 8 , 1 , 1 , 
2019.09.17 , 19:00 , 552 , 1.10632 , 8 , 10 , 0 , 
2019.09.17 , 11:00 , 551 , 1.10163 , 8 , 2 , 1 , 
2019.09.17 , 03:00 , 550 , 1.10030 , 8 , 25 , 0 , 
2019.09.16 , 19:00 , 549 , 1.10061 , 8 , 17 , 0 , 
2019.09.16 , 11:00 , 548 , 1.10720 , 8 , 9 , 0 , 
2019.09.16 , 03:00 , 547 , 1.10831 , 8 , 1 , 1 , 
2019.09.13 , 19:00 , 546 , 1.10740 , 8 , 2 , 1 , 
2019.09.13 , 11:00 , 545 , 1.10938 , 8 , 1 , 1 , 
2019.09.13 , 03:00 , 544 , 1.10561 , 8 , 1 , 2 , 
2019.09.12 , 19:00 , 543 , 1.10734 , 8 , 4 , 1 , 
2019.09.12 , 11:00 , 542 , 1.10170 , 8 , 7 , 1 , 
2019.09.12 , 03:00 , 541 , 1.10134 , 8 , 10 , 0 , 
2019.09.11 , 19:00 , 540 , 1.10006 , 8 , 2 , 1 , 
2019.09.11 , 11:00 , 539 , 1.10341 , 8 , 4 , 1 , 
2019.09.11 , 03:00 , 538 , 1.10500 , 8 , 10 , 0 , 
2019.09.10 , 19:00 , 537 , 1.10420 , 8 , 2 , 1 , 
2019.09.10 , 11:00 , 536 , 1.10448 , 8 , 1 , 2 , 
2019.09.10 , 03:00 , 535 , 1.10468 , 8 , 8 , 0 , 
2019.09.09 , 19:00 , 534 , 1.10558 , 8 , 0 , 1 , 
2019.09.09 , 11:00 , 533 , 1.10312 , 8 , 8 , 0 , 
2019.09.09 , 03:00 , 532 , 1.10202 , 8 , 0 , 1 , 
2019.09.06 , 19:00 , 531 , 1.10422 , 8 , 3 , 2 , 
2019.09.06 , 11:00 , 530 , 1.10466 , 8 , 1 , 1 , 
2019.09.06 , 03:00 , 529 , 1.10341 , 8 , 0 , 1 , 
2019.09.05 , 19:00 , 528 , 1.10376 , 8 , 3 , 1 , 
2019.09.05 , 11:00 , 527 , 1.10395 , 8 , 2 , 2 , 
2019.09.05 , 03:00 , 526 , 1.10347 , 8 , 38 , 0 , 
2019.09.04 , 19:00 , 525 , 1.10244 , 8 , 30 , 0 , 
2019.09.04 , 11:00 , 524 , 1.09921 , 8 , 22 , 0 , 
2019.09.04 , 03:00 , 523 , 1.09725 , 8 , 14 , 0 , 
2019.09.03 , 19:00 , 522 , 1.09668 , 8 , 6 , 1 , 
2019.09.03 , 11:00 , 521 , 1.09395 , 8 , 16 , 0 , 
2019.09.03 , 03:00 , 520 , 1.09642 , 8 , 8 , 0 , 
2019.09.02 , 19:00 , 519 , 1.09673 , 8 , 0 , 2 , 
2019.09.02 , 11:00 , 518 , 1.09821 , 8 , 18 , 0 , 
2019.09.02 , 03:00 , 517 , 1.09903 , 8 , 10 , 0 , 
2019.08.30 , 19:00 , 516 , 1.09891 , 8 , 2 , 1 , 
2019.08.30 , 11:00 , 515 , 1.10376 , 8 , 1 , 1 , 
2019.08.30 , 03:00 , 514 , 1.10590 , 8 , 1 , 2 , 
2019.08.29 , 19:00 , 513 , 1.10583 , 8 , 2 , 1 , 
2019.08.29 , 11:00 , 512 , 1.10819 , 8 , 18 , 0 , 
2019.08.29 , 03:00 , 511 , 1.10855 , 8 , 10 , 0 , 
2019.08.28 , 19:00 , 510 , 1.10834 , 8 , 2 , 1 , 
2019.08.28 , 11:00 , 509 , 1.10930 , 8 , 24 , 0 , 
2019.08.28 , 03:00 , 508 , 1.10894 , 8 , 16 , 0 , 
2019.08.27 , 19:00 , 507 , 1.10939 , 8 , 8 , 0 , 
2019.08.27 , 11:00 , 506 , 1.11090 , 8 , 0 , 3 , 
2019.08.27 , 03:00 , 505 , 1.11013 , 8 , 4 , 1 , 
2019.08.26 , 19:00 , 504 , 1.11105 , 8 , 18 , 0 , 
2019.08.26 , 11:00 , 503 , 1.11213 , 8 , 10 , 0 , 
2019.08.26 , 03:00 , 502 , 1.11433 , 8 , 2 , 1 , 
2019.08.23 , 19:00 , 501 , 1.11472 , 8 , 6 , 1 , 
2019.08.23 , 11:00 , 500 , 1.10686 , 8 , 24 , 0 , 
2019.08.23 , 03:00 , 499 , 1.10835 , 8 , 16 , 0 , 
2019.08.22 , 19:00 , 498 , 1.10886 , 8 , 8 , 0 , 
2019.08.22 , 11:00 , 497 , 1.11048 , 8 , 0 , 1 , 
2019.08.22 , 03:00 , 496 , 1.10903 , 8 , 6 , 1 , 
2019.08.21 , 19:00 , 495 , 1.10968 , 8 , 5 , 1 , 
2019.08.21 , 11:00 , 494 , 1.10925 , 8 , 1 , 3 , 
2019.08.21 , 03:00 , 493 , 1.10971 , 8 , 7 , 1 , 
2019.08.20 , 19:00 , 492 , 1.10919 , 8 , 3 , 1 , 
2019.08.20 , 11:00 , 491 , 1.10720 , 8 , 5 , 1 , 
2019.08.20 , 03:00 , 490 , 1.10814 , 8 , 5 , 1 , 
2019.08.19 , 19:00 , 489 , 1.10954 , 8 , 6 , 1 , 
2019.08.19 , 11:00 , 488 , 1.11038 , 8 , 3 , 1 , 
2019.08.19 , 03:00 , 487 , 1.10918 , 8 , 10 , 0 , 
2019.08.16 , 19:00 , 486 , 1.10897 , 8 , 2 , 2 , 
2019.08.16 , 11:00 , 485 , 1.10857 , 8 , 21 , 0 , 
2019.08.16 , 03:00 , 484 , 1.11105 , 8 , 13 , 0 , 
2019.08.15 , 19:00 , 483 , 1.11045 , 8 , 5 , 1 , 
2019.08.15 , 11:00 , 482 , 1.11480 , 8 , 13 , 0 , 
2019.08.15 , 03:00 , 481 , 1.11429 , 8 , 5 , 1 , 
2019.08.14 , 19:00 , 480 , 1.11437 , 8 , 4 , 1 , 
2019.08.14 , 11:00 , 479 , 1.11799 , 8 , 2 , 2 , 
2019.08.14 , 03:00 , 478 , 1.11763 , 8 , 11 , 0 , 
2019.08.13 , 19:00 , 477 , 1.11830 , 8 , 3 , 2 , 
2019.08.13 , 11:00 , 476 , 1.11922 , 8 , 5 , 1 , 
2019.08.13 , 03:00 , 475 , 1.12160 , 8 , 9 , 0 , 
2019.08.12 , 19:00 , 474 , 1.12106 , 8 , 1 , 1 , 
2019.08.12 , 11:00 , 473 , 1.11676 , 8 , 0 , 2 , 
2019.08.12 , 03:00 , 472 , 1.12073 , 8 , 2 , 1 , 
2019.08.09 , 19:00 , 471 , 1.12209 , 8 , 0 , 1 , 
2019.08.09 , 11:00 , 470 , 1.11874 , 8 , 11 , 0 , 
2019.08.09 , 03:00 , 469 , 1.11861 , 8 , 3 , 1 , 
2019.08.08 , 19:00 , 468 , 1.12067 , 8 , 2 , 2 , 
2019.08.08 , 11:00 , 467 , 1.12169 , 8 , 0 , 1 , 
2019.08.08 , 03:00 , 466 , 1.12038 , 8 , 3 , 1 , 
2019.08.07 , 19:00 , 465 , 1.12351 , 8 , 0 , 2 , 
2019.08.07 , 11:00 , 464 , 1.11894 , 8 , 7 , 1 , 
2019.08.07 , 03:00 , 463 , 1.12052 , 8 , 11 , 0 , 
2019.08.06 , 19:00 , 462 , 1.11963 , 8 , 3 , 1 , 
2019.08.06 , 11:00 , 461 , 1.12140 , 8 , 8 , 0 , 
2019.08.06 , 03:00 , 460 , 1.12417 , 8 , 0 , 1 , 
2019.08.05 , 19:00 , 459 , 1.11966 , 8 , 38 , 0 , 
2019.08.05 , 11:00 , 458 , 1.11300 , 8 , 30 , 0 , 
2019.08.05 , 03:00 , 457 , 1.11078 , 8 , 22 , 0 , 
2019.08.02 , 19:00 , 456 , 1.11125 , 8 , 14 , 0 , 
2019.08.02 , 11:00 , 455 , 1.11131 , 8 , 6 , 1 , 
2019.08.02 , 03:00 , 454 , 1.10788 , 8 , 0 , 1 , 
2019.08.01 , 19:00 , 453 , 1.10606 , 8 , 5 , 1 , 
2019.08.01 , 11:00 , 452 , 1.10325 , 8 , 26 , 0 , 
2019.08.01 , 03:00 , 451 , 1.10716 , 8 , 18 , 0 , 
2019.07.31 , 19:00 , 450 , 1.11296 , 8 , 10 , 0 , 
2019.07.31 , 11:00 , 449 , 1.11522 , 8 , 2 , 2 , 
2019.07.31 , 03:00 , 448 , 1.11567 , 8 , 6 , 1 , 
2019.07.30 , 19:00 , 447 , 1.11474 , 8 , 1 , 2 , 
2019.07.30 , 11:00 , 446 , 1.11439 , 8 , 1 , 1 , 
2019.07.30 , 03:00 , 445 , 1.11421 , 8 , 5 , 1 , 
2019.07.29 , 19:00 , 444 , 1.11430 , 8 , 4 , 1 , 
2019.07.29 , 11:00 , 443 , 1.11199 , 8 , 7 , 1 , 
2019.07.29 , 03:00 , 442 , 1.11294 , 8 , 9 , 0 , 
2019.07.26 , 19:00 , 441 , 1.11208 , 8 , 1 , 1 , 
2019.07.26 , 11:00 , 440 , 1.11343 , 8 , 18 , 0 , 
2019.07.26 , 03:00 , 439 , 1.11447 , 8 , 10 , 0 , 
2019.07.25 , 19:00 , 438 , 1.11550 , 8 , 2 , 2 , 
2019.07.25 , 11:00 , 437 , 1.11273 , 8 , 18 , 0 , 
2019.07.25 , 03:00 , 436 , 1.11419 , 8 , 10 , 0 , 